Change the Weather History Date:

Sunday, January 13, 2013

  Actual Average (KPWC) Record (KPWC)
Temperature  
Mean Temperature 0 °F -  
Max Temperature 6 °F 17 °F 35 °F (2002)
Min Temperature -5 °F 0 °F -36 °F (2009)
Degree Days  
Heating Degree Days 64    
Moisture  
Dew Point -4 °F    
Average Humidity 81    
Maximum Humidity 92    
Minimum Humidity 67    
Precipitation  
Precipitation 0.00 in - - ()
Sea Level Pressure  
Sea Level Pressure 30.05 in    
Wind  
Wind Speed 5 mph (WNW)    
Max Wind Speed 12 mph    
Max Gust Speed -    
Visibility 10 miles    
Events Snow    
Averages and records for this station are not official NWS values.
T = Trace of Precipitation, MM = Missing Value Source: NWS Daily Summary

Daily Weather History Graph

Daily Weather History Graph

Search for Another Location

Airport or City:

Trip Planner

Search our weather history database for the weather conditions in past years. The results will help you decide how hot, cold, wet, or windy it might be!

Date:

Astronomy

Jan. 13, 2013 Rise Set
Actual Time 7:59 AM CST 4:52 PM CST
Civil Twilight 7:24 AM CST 5:26 PM CST
Nautical Twilight 6:46 AM CST 6:04 PM CST
Astronomical Twilight 6:10 AM CST 6:41 PM CST
Moon 8:47 AM CST (1/13) 7:44 PM CST (1/13)
Length of Visible Light 10h 02m
Length of Day
8h 53m
Waxing Crescent, 5% of the Moon is Illuminated
Jan 13
Waxing Crescent
Jan 18
First Quarter
Jan 26
Full
Feb 3
Last Quarter
Feb 10
New

Hourly Weather History & Observations

Time (CST) Temp. Windchill Dew Point Humidity Pressure Visibility Wind Dir Wind Speed Gust Speed Precip Events Conditions
12:16 AM -2.2 °F -16.8 °F -5.8 °F 85% 30.02 in 10.0 mi WNW 8.1 mph - N/A   Clear
12:36 AM -2.2 °F -16.8 °F -5.8 °F 85% 30.01 in 10.0 mi NW 8.1 mph - N/A   Clear
12:56 AM -2.2 °F -14.2 °F -5.8 °F 85% 30.00 in 10.0 mi NW 5.8 mph - N/A   Clear
1:16 AM -2.2 °F -14.2 °F -7.6 °F 78% 30.00 in 10.0 mi NW 5.8 mph - N/A   Clear
1:36 AM -2.2 °F -16.8 °F -7.6 °F 78% 30.01 in 10.0 mi WNW 8.1 mph - N/A   Clear
1:56 AM -4.0 °F -17.8 °F -7.6 °F 85% 30.02 in 10.0 mi WNW 6.9 mph - N/A   Clear
2:16 AM -4.0 °F -17.8 °F -9.4 °F 78% 30.02 in 10.0 mi NW 6.9 mph - N/A   Clear
2:36 AM -5.8 °F -14.5 °F -9.4 °F 84% 30.03 in 10.0 mi WNW 3.5 mph - N/A   Clear
2:56 AM -5.8 °F -14.5 °F -9.4 °F 84% 30.03 in 10.0 mi WNW 3.5 mph - N/A   Clear
3:16 AM -5.8 °F - -9.4 °F 84% 30.02 in 10.0 mi Calm Calm - N/A   Clear
3:36 AM -5.8 °F -14.5 °F -9.4 °F 84% 30.02 in 10.0 mi WNW 3.5 mph - N/A   Clear
3:56 AM -5.8 °F -14.5 °F -9.4 °F 84% 30.01 in 10.0 mi WNW 3.5 mph - N/A   Mostly Cloudy
4:16 AM -5.8 °F - -7.6 °F 92% 30.02 in 10.0 mi Calm Calm - N/A   Overcast
4:36 AM -4.0 °F - -7.6 °F 85% 30.01 in 10.0 mi Calm Calm - N/A   Overcast
4:56 AM -4.0 °F -12.4 °F -7.6 °F 85% 30.01 in 10.0 mi WNW 3.5 mph - N/A   Overcast
5:16 AM -4.0 °F -14.6 °F -7.6 °F 85% 30.00 in 10.0 mi NW 4.6 mph - N/A   Overcast
5:36 AM -2.2 °F -10.4 °F -7.6 °F 78% 30.01 in 10.0 mi NW 3.5 mph - N/A   Overcast
5:56 AM -2.2 °F -12.5 °F -5.8 °F 85% 30.02 in 10.0 mi NW 4.6 mph - N/A   Overcast
6:16 AM -2.2 °F -14.2 °F -7.6 °F 78% 30.03 in 7.0 mi NW 5.8 mph - N/A   Overcast
6:36 AM -2.2 °F -14.2 °F -7.6 °F 78% 30.04 in 7.0 mi WNW 5.8 mph - N/A Snow Light Snow
6:56 AM -2.2 °F - -7.6 °F 78% 30.06 in 10.0 mi Calm Calm - N/A   Overcast
7:16 AM -2.2 °F - -7.6 °F 78% 30.07 in 10.0 mi Calm Calm - N/A   Overcast
7:36 AM -2.2 °F -10.4 °F -5.8 °F 85% 30.08 in 10.0 mi WNW 3.5 mph - N/A   Overcast
7:56 AM -2.2 °F -14.2 °F -5.8 °F 85% 30.08 in 10.0 mi WNW 5.8 mph - N/A   Overcast
8:16 AM -2.2 °F -14.2 °F -5.8 °F 85% 30.09 in 10.0 mi WNW 5.8 mph - N/A   Overcast
8:36 AM -2.2 °F -10.4 °F -5.8 °F 85% 30.08 in 10.0 mi NW 3.5 mph - N/A   Mostly Cloudy
8:56 AM -2.2 °F -12.5 °F -5.8 °F 85% 30.09 in 10.0 mi WNW 4.6 mph - N/A   Scattered Clouds
9:16 AM -2.2 °F -14.2 °F -5.8 °F 85% 30.09 in 10.0 mi WNW 5.8 mph - N/A   Clear
9:36 AM -2.2 °F -12.5 °F -5.8 °F 85% 30.09 in 10.0 mi West 4.6 mph - N/A   Scattered Clouds
9:56 AM -0.4 °F -8.3 °F -5.8 °F 78% 30.10 in 10.0 mi NW 3.5 mph - N/A   Scattered Clouds
10:16 AM -0.4 °F -10.4 °F -5.8 °F 78% 30.09 in 10.0 mi WNW 4.6 mph - N/A   Clear
10:56 AM -0.4 °F -8.3 °F -5.8 °F 78% 30.09 in 10.0 mi NNW 3.5 mph - N/A   Clear
11:36 AM 1.4 °F -8.3 °F -4.0 °F 78% 30.07 in 10.0 mi West 4.6 mph - N/A   Clear
11:56 AM 3.2 °F -6.2 °F -4.0 °F 72% 30.05 in 10.0 mi WNW 4.6 mph - N/A   Clear
12:16 PM 1.4 °F -9.9 °F -4.0 °F 78% 30.05 in 10.0 mi WNW 5.8 mph - N/A   Clear
12:36 PM 1.4 °F -9.9 °F -4.0 °F 78% 30.04 in 10.0 mi WNW 5.8 mph - N/A   Clear
12:56 PM 1.4 °F -9.9 °F -4.0 °F 78% 30.03 in 10.0 mi NW 5.8 mph - N/A   Clear
1:16 PM 3.2 °F -7.8 °F -2.2 °F 78% 30.02 in 10.0 mi NW 5.8 mph - N/A   Clear
1:36 PM 5.0 °F -5.6 °F -2.2 °F 72% 30.02 in 10.0 mi WNW 5.8 mph - N/A   Clear
1:56 PM 6.8 °F - -2.2 °F 67% 30.02 in 10.0 mi Calm Calm - N/A   Clear
2:36 PM 6.8 °F - -0.4 °F 72% 30.03 in 10.0 mi Calm Calm - N/A   Clear
2:56 PM 6.8 °F - -0.4 °F 72% 30.03 in 10.0 mi Calm Calm - N/A   Clear
3:16 PM 6.8 °F - -0.4 °F 72% 30.04 in 10.0 mi Calm Calm - N/A   Clear
3:36 PM 6.8 °F - -0.4 °F 72% 30.04 in 10.0 mi Calm Calm - N/A   Clear
3:56 PM 6.8 °F - -0.4 °F 72% 30.05 in 10.0 mi Calm Calm - N/A   Clear
4:16 PM 6.8 °F - -0.4 °F 72% 30.05 in 10.0 mi Calm Calm - N/A   Clear
4:36 PM 6.8 °F - -0.4 °F 72% 30.05 in 10.0 mi Calm Calm - N/A   Clear
4:56 PM 3.2 °F - -0.4 °F 85% 30.06 in 10.0 mi Calm Calm - N/A   Clear
5:16 PM 1.4 °F - -2.2 °F 85% 30.05 in 10.0 mi Calm Calm - N/A   Clear
5:36 PM 1.4 °F - -0.4 °F 92% 30.06 in 10.0 mi Calm Calm - N/A   Scattered Clouds
5:56 PM 3.2 °F - -0.4 °F 85% 30.05 in 10.0 mi Calm Calm - N/A   Mostly Cloudy
6:16 PM 1.4 °F - -0.4 °F 92% 30.06 in 10.0 mi Calm Calm - N/A   Mostly Cloudy
6:36 PM 3.2 °F - -0.4 °F 85% 30.06 in 10.0 mi Calm Calm - N/A   Overcast
6:56 PM 3.2 °F - -0.4 °F 85% 30.06 in 10.0 mi Calm Calm - N/A   Overcast
7:16 PM 6.8 °F -0.1 °F 1.4 °F 79% 30.06 in 10.0 mi West 3.5 mph - N/A   Mostly Cloudy
7:36 PM 6.8 °F -0.1 °F 1.4 °F 79% 30.07 in 10.0 mi West 3.5 mph - N/A   Scattered Clouds
7:56 PM 5.0 °F -2.1 °F 1.4 °F 85% 30.07 in 10.0 mi West 3.5 mph - N/A   Clear
8:16 PM 6.8 °F -2.0 °F 1.4 °F 79% 30.07 in 10.0 mi West 4.6 mph - N/A   Mostly Cloudy
8:36 PM 6.8 °F -3.5 °F 1.4 °F 79% 30.07 in 10.0 mi WSW 5.8 mph - N/A   Overcast
8:56 PM 6.8 °F -0.1 °F 1.4 °F 79% 30.08 in 10.0 mi West 3.5 mph - N/A   Overcast
9:16 PM 6.8 °F -5.9 °F 1.4 °F 79% 30.09 in 10.0 mi West 8.1 mph - N/A   Overcast
9:36 PM 5.0 °F -5.6 °F 1.4 °F 85% 30.09 in 10.0 mi West 5.8 mph - N/A   Overcast
9:56 PM 5.0 °F -5.6 °F -0.4 °F 78% 30.10 in 10.0 mi West 5.8 mph - N/A   Overcast
10:16 PM 5.0 °F -4.1 °F -0.4 °F 78% 30.10 in 10.0 mi West 4.6 mph - N/A   Overcast
10:36 PM 5.0 °F -6.9 °F -0.4 °F 78% 30.11 in 10.0 mi West 6.9 mph - N/A Snow Light Snow
10:56 PM 5.0 °F -6.9 °F -0.4 °F 78% 30.12 in 10.0 mi West 6.9 mph - N/A   Overcast
11:36 PM 3.2 °F -13.1 °F -0.4 °F 85% 30.13 in 10.0 mi West 11.5 mph - N/A   Overcast
11:56 PM 3.2 °F -12.2 °F -2.2 °F 78% 30.13 in 10.0 mi West 10.4 mph - N/A   Overcast